Stündliche Wetter Bolshie Shapy

Heute, 24 Januar, Sonntag

Zeit Temperatur Niederschläge Wind Luftdruck Luftfeuchtigkeit
00:00 -6°C° 0.3 mm 3 m/S 751 mmHg 96%
01:00 +1°C° 0.1 mm 2 m/S 750 mmHg 99%
02:00 +1°C° 0.1 mm 2 m/S 750 mmHg 99%
03:00 +1°C° 0.1 mm 2 m/S 750 mmHg 99%
04:00 0°C° 0.1 mm 3 m/S 750 mmHg 98%
05:00 0°C° 0.1 mm 3 m/S 750 mmHg 98%
06:00 0°C° 0.1 mm 3 m/S 751 mmHg 98%
07:00 0°C° 0 mm 3 m/S 751 mmHg 97%
08:00 0°C° 0 mm 3 m/S 751 mmHg 97%
09:00 0°C° 0 mm 3 m/S 752 mmHg 96%
10:00 0°C° 0 mm 3 m/S 752 mmHg 97%
11:00 +1°C° 0 mm 2 m/S 752 mmHg 98%
12:00 +1°C° 0 mm 2 m/S 752 mmHg 99%
13:00 +1°C° 0 mm 2 m/S 752 mmHg 99%
14:00 +1°C° 0 mm 2 m/S 752 mmHg 99%
15:00 +1°C° 0 mm 2 m/S 752 mmHg 99%
16:00 +1°C° 0 mm 2 m/S 753 mmHg 99%
17:00 +2°C° 0 mm 1 m/S 753 mmHg 99%
18:00 +2°C° 0 mm 1 m/S 753 mmHg 98%
19:00 +1°C° 0 mm 2 m/S 753 mmHg 98%
20:00 +1°C° 0 mm 2 m/S 754 mmHg 98%
21:00 +1°C° 0 mm 2 m/S 754 mmHg 98%
22:00 +1°C° 0 mm 2 m/S 754 mmHg 98%
23:00 +1°C° 0 mm 2 m/S 754 mmHg 98%

Morgen, 25 Januar, Montag

Zeit Temperatur Niederschläge Wind Luftdruck Luftfeuchtigkeit
00:00 +1°C° 0 mm 2 m/S 754 mmHg 98%
01:00 +1°C° 0.1 mm 2 m/S 754 mmHg 98%
02:00 +1°C° 0.1 mm 2 m/S 754 mmHg 97%
03:00 0°C° 0.1 mm 3 m/S 754 mmHg 97%
04:00 0°C° 0.2 mm 3 m/S 754 mmHg 97%
05:00 0°C° 0.2 mm 3 m/S 754 mmHg 97%
06:00 0°C° 0.2 mm 3 m/S 754 mmHg 97%
07:00 0°C° 0.3 mm 3 m/S 755 mmHg 97%
08:00 0°C° 0.3 mm 3 m/S 755 mmHg 97%
09:00 0°C° 0.3 mm 3 m/S 755 mmHg 96%
10:00 0°C° 0.1 mm 3 m/S 755 mmHg 95%
11:00 -1°C° 0.1 mm 3 m/S 755 mmHg 95%
12:00 -1°C° 0.1 mm 3 m/S 756 mmHg 94%
13:00 -1°C° 0 mm 3 m/S 756 mmHg 93%
14:00 -1°C° 0 mm 3 m/S 756 mmHg 92%
15:00 -1°C° 0 mm 3 m/S 756 mmHg 91%
16:00 -2°C° 0 mm 3 m/S 756 mmHg 91%
17:00 -4°C° 0 mm 3 m/S 756 mmHg 92%
18:00 -5°C° 0 mm 3 m/S 756 mmHg 93%
19:00 -5°C° 0 mm 3 m/S 756 mmHg 93%
20:00 -7°C° 0 mm 4 m/S 756 mmHg 94%
21:00 -7°C° 0 mm 4 m/S 756 mmHg 94%
22:00 -7°C° 0 mm 4 m/S 756 mmHg 94%
23:00 -5°C° 0 mm 4 m/S 756 mmHg 94%

übermorgen, 26 Januar, Dienstag

Zeit Temperatur Niederschläge Wind Luftdruck Luftfeuchtigkeit
00:00 -5°C° 0 mm 3 m/S 756 mmHg 94%
01:00 -5°C° 0.1 mm 3 m/S 756 mmHg 94%
02:00 -5°C° 0.1 mm 3 m/S 756 mmHg 95%
03:00 -5°C° 0.1 mm 3 m/S 756 mmHg 95%
04:00 -5°C° 0 mm 3 m/S 756 mmHg 95%
05:00 -5°C° 0 mm 3 m/S 755 mmHg 94%
06:00 -4°C° 0 mm 3 m/S 755 mmHg 94%
07:00 -4°C° 0 mm 3 m/S 755 mmHg 94%
08:00 -4°C° 0 mm 3 m/S 755 mmHg 94%
09:00 -4°C° 0 mm 3 m/S 755 mmHg 94%
10:00 -4°C° 0 mm 3 m/S 755 mmHg 94%
11:00 -4°C° 0 mm 3 m/S 755 mmHg 93%
12:00 -4°C° 0 mm 4 m/S 755 mmHg 93%
13:00 -4°C° 0 mm 3 m/S 755 mmHg 93%
14:00 -4°C° 0 mm 3 m/S 755 mmHg 93%
15:00 -4°C° 0 mm 3 m/S 755 mmHg 92%
16:00 -4°C° 0 mm 3 m/S 755 mmHg 93%
17:00 -4°C° 0 mm 3 m/S 755 mmHg 93%
18:00 -5°C° 0 mm 3 m/S 755 mmHg 93%
19:00 -5°C° 0 mm 3 m/S 755 mmHg 93%
20:00 -5°C° 0 mm 3 m/S 754 mmHg 93%
21:00 -5°C° 0 mm 4 m/S 754 mmHg 93%
22:00 -5°C° 0 mm 4 m/S 754 mmHg 93%
23:00 -5°C° 0 mm 4 m/S 754 mmHg 93%

27 Januar, Mittwoch

Zeit Temperatur Niederschläge Wind Luftdruck Luftfeuchtigkeit
00:00 -7°C° 0 mm 4 m/S 753 mmHg 93%
01:00 -6°C° 0 mm 5 m/S 753 mmHg 93%
02:00 -6°C° 0 mm 5 m/S 753 mmHg 93%
03:00 -6°C° 0 mm 5 m/S 752 mmHg 92%
04:00 -6°C° 0.2 mm 5 m/S 752 mmHg 93%
05:00 -6°C° 0.2 mm 5 m/S 752 mmHg 94%
06:00 -6°C° 0.2 mm 5 m/S 751 mmHg 95%
07:00 -5°C° 0.5 mm 4 m/S 751 mmHg 94%
08:00 -4°C° 0.5 mm 4 m/S 751 mmHg 94%
09:00 -4°C° 0.5 mm 4 m/S 751 mmHg 93%
10:00 -3°C° 0 mm 4 m/S 751 mmHg 92%
11:00 -3°C° 0 mm 4 m/S 751 mmHg 92%
12:00 -2°C° 0 mm 5 m/S 751 mmHg 91%
13:00 -2°C° 0 mm 5 m/S 751 mmHg 91%
14:00 -2°C° 0 mm 5 m/S 751 mmHg 91%
15:00 -2°C° 0 mm 5 m/S 751 mmHg 90%
16:00 -2°C° 0 mm 5 m/S 751 mmHg 91%
17:00 -2°C° 0 mm 4 m/S 751 mmHg 91%
18:00 -2°C° 0 mm 4 m/S 751 mmHg 92%
19:00 -2°C° 0.3 mm 5 m/S 751 mmHg 94%
20:00 -2°C° 0.3 mm 5 m/S 750 mmHg 95%
21:00 -2°C° 0.3 mm 5 m/S 750 mmHg 97%
22:00 -4°C° 0.3 mm 5 m/S 750 mmHg 96%
23:00 -4°C° 0.3 mm 5 m/S 750 mmHg 94%

28 Januar, Donnerstag

Zeit Temperatur Niederschläge Wind Luftdruck Luftfeuchtigkeit
00:00 -3°C° 0.3 mm 4 m/S 750 mmHg 93%
01:00 -3°C° 0.1 mm 4 m/S 750 mmHg 93%
02:00 -3°C° 0.1 mm 4 m/S 750 mmHg 93%
03:00 -3°C° 0.1 mm 4 m/S 750 mmHg 93%
04:00 -3°C° 0.1 mm 4 m/S 749 mmHg 93%
05:00 -4°C° 0.1 mm 4 m/S 749 mmHg 94%
06:00 -4°C° 0.1 mm 4 m/S 749 mmHg 94%
07:00 -4°C° 0.1 mm 4 m/S 749 mmHg 94%
08:00 -4°C° 0.1 mm 4 m/S 749 mmHg 94%
09:00 -5°C° 0.1 mm 4 m/S 749 mmHg 95%
10:00 -4°C° 0.2 mm 3 m/S 749 mmHg 95%
11:00 -4°C° 0.2 mm 3 m/S 748 mmHg 95%
12:00 -4°C° 0.2 mm 3 m/S 748 mmHg 95%
13:00 -4°C° 0.1 mm 3 m/S 748 mmHg 95%
14:00 -5°C° 0.1 mm 3 m/S 748 mmHg 95%
15:00 -5°C° 0.1 mm 3 m/S 747 mmHg 94%
16:00 -6°C° 0.1 mm 3 m/S 747 mmHg 94%
17:00 -6°C° 0.1 mm 3 m/S 747 mmHg 95%
18:00 -7°C° 0.1 mm 3 m/S 747 mmHg 95%
19:00 -6°C° 0.1 mm 2 m/S 747 mmHg 95%
20:00 -7°C° 0.1 mm 2 m/S 747 mmHg 95%
21:00 -7°C° 0.1 mm 2 m/S 747 mmHg 95%

29 Januar, Freitag

Zeit Temperatur Niederschläge Wind Luftdruck Luftfeuchtigkeit
Mehr zeigen

Wir brauchen deine Erlaubnis

Meteoprog und unser Service Anbieter werden persönliche Daten aufbewahren, so wie Cookies, Geräte Bezeichnung oder ähnliche Technologien von deinem Gerät und Prozess, so wie Persönliche Daten Inhalte und Werbungen, genauso wie social Media und den Verkehr zu analysieren.

  • Aufbewahrung und/oder Zugang zu deiner Geräte Informationen.

    Cookies, Geräte Bezeichnung oder andere Informationen, können aufbewahrt oder Zugang zu deinem Gerät erhalten, für den Grund, der oben angegeben wird.

  • Personalisierte Werbung und Inhalte, Messungen, Einblick in das Publikum und Produkt Entwicklung.

    Werbungen und Inhalte können personalisiert werden, basierend auf ein Profil. Mehr Daten können besser personalisierte Werbungen und Inhalte hinzufügen. Werbung und Inhalte können gezeigt und gemessen werden. Einblicke über das Publikum, welche die Werbung gesehen haben und den Inhalt, können abgeleitet werden. So wie Daten können genutzt werden, um es zu verbessern oder die Benutzer Erfahrung zu verbessern das System und die Software.

Wenn du “Ich stimme zu” klickst, erlaubst du uns, die Cookies zu benutzen die Geräte Bezeichnung, den Web oder ähnliche Technologien zu benutzen. Deine Settings, können in deinem Gerät bei deinem Browser geändert werden.

Für den bestimmten Zweck, berechtigten Interessen beruhen darauf, mehr als auf den Inhalt. Du kannst mehr darüber in unseren Privaten und Cookie Politik lesen.